OBJECT D, 62380

Orbit data source: Space-Track

You're viewing an Uncataloged Satellite

Recently launched and/or uncataloged satellites may have evolving metadata. Metadata may include but not limited to: Owner, Maufacturer, Bus, Motor, and Mission.

OBJECT D, 62380 is a satellite in LEO that was launched on Sat, 21 Dec 2024 UTC via an FALCON 9 launch vehicle from the Air Force Western Test Range (AFWTR). Unknown objects in Earth's orbit typically refer to objects detected orbiting the Earth but have not yet been identified or cataloged. These objects could be anything from previously untracked satellites, spent rocket stages, debris from satellite collisions, or even natural meteoroids temporarily captured by Earth's gravity.

Loading next visibility...
Identifier
62380, 2024-247D
Orbit
LEO
Country
Flag of TBDTBD
Related business
None
Manufacturer
Unknown
Mission
Operational Commercial Technology
Bus & Motor
Unknown
Mass
Unknown
Launch date (UTC)
2024-12-21 (1 year ago)
Launch vehicle
FALCON 9
Launch site
Air Force Western Test Range (AFWTR)
Object type
Unknown
Shape & HBR
Box + 2 Pan, 1.0 m
Radar Cross Section
0.183 m², Medium (>0.1 m² and < 1m²)

Expand to show TLE details & history
Last TLE update: 12 hours ago

TLE from 12 hours ago
0 OBJECT D
1 62380U 24247D   25349.90897063  .00006750  00000-0  26038-3 0  9993
2 62380  44.9925 212.4763 0002584 232.4881 127.5767 15.27039236 54941
Epoch: 2025-12-15T21:48Z
TLE epoch observation values (Epoch: 2025-12-15T21:48:55.062Z)
Latitude
-0.00002°
Longitude
160.44608°
Altitude
485.748 km
Speed
7.623 km/s
True Right ascension
14h 09m 54s
True Declination
0° 00' 00"
Sunlit
Object was in daylight at epoch
Visualization orbit readout
Latitude
Unknown
Longitude
Unknown
Altitude
Unknown
Speed
Unknown
Apparent Right ascension
Unknown
Apparent Declination
Unknown
Sunlit
N/A
Visualization observer readout
Local Sidereal Time
08:52:11
Azimuth
Unknown
Elevation
Unknown
Doppler factor
Unknown
Orbital elements
Apogee altitude
488.053 km
Perigee altitude
484.505 km
Semi-major axis
6,864.416 km
Eccentricity
0.00026
Inclination
44.9925°
RAAN
212.4763°
Arg. of periapsis
232.4881°
True anomaly
127.60016°
Mean anomaly
127.5767°
Eccentric anomaly
127.58843°
Mean motion
3.81626 °/min
Orbital period
94.33 mins
BSTAR
0.00026038
Loading maneuver chart data...
Computing Atmospheric mass density...
Loading historical data...
Loading historical data...
Loading historical data...
Loading historical data...
Loading historical data...
Loading historical data...
Loading historical data...

Documentation

Showing up to 5 results
|